This is the latest recevied weather packets stored in our database for station/object K4AVM-13. If no packets are shown the sender has not sent any weather packets the latest 10 day(s).
| Time | Temp. | Humidity | Pressure | Rain* | Wind** | Luminosity | Snow |
|---|---|---|---|---|---|---|---|
| 1777749021 | 15.56° C | 43% | 1013.7 hPa | 0 mm | - | 251 W/m² | - |
| 1777748718 | 15° C | 43% | 1013.6 hPa | 0 mm | - | 263 W/m² | - |
| 1777748110 | 15.56° C | 45% | 1013.7 hPa | 0 mm | - | 283 W/m² | - |
| 1777747807 | 15.56° C | 47% | 1014 hPa | 0 mm | - | 392 W/m² | - |
| 1777747503 | 15.56° C | 44% | 1014 hPa | 0 mm | - | 350 W/m² | - |
| 1777747199 | 15° C | 47% | 1014.1 hPa | 0 mm | - | 377 W/m² | - |
| 1777746895 | 14.44° C | 46% | 1013.9 hPa | 0 mm | - | 313 W/m² | - |
| 1777746590 | 15° C | 47% | 1014.1 hPa | 0 mm | - | 292 W/m² | - |
| 1777746286 | 14.44° C | 48% | 1014.3 hPa | 0 mm | - | 283 W/m² | - |
| 1777745680 | 15° C | 46% | 1014.6 hPa | 0 mm | - | 374 W/m² | - |
| 1777745380 | 14.44° C | 47% | 1014.6 hPa | 0 mm | - | 415 W/m² | - |
| 1777745076 | 14.44° C | 46% | 1014.9 hPa | 0 mm | - | 351 W/m² | - |
| 1777744772 | 14.44° C | 48% | 1014.8 hPa | 0 mm | - | 411 W/m² | - |
| 1777744466 | 13.89° C | 50% | 1014.9 hPa | 0 mm | - | 336 W/m² | - |
| 1777743557 | 14.44° C | 47% | 1015.3 hPa | 0 mm | - | 223 W/m² | - |
| 1777742345 | 12.78° C | 49% | 1015.5 hPa | 0 mm | - | 151 W/m² | - |
| 1777742041 | 12.78° C | 50% | 1015.5 hPa | 0 mm | - | 133 W/m² | - |
| 1777741738 | 13.33° C | 48% | 1015.6 hPa | 0 mm | - | 193 W/m² | - |
| 1777741130 | 12.78° C | 50% | 1015.5 hPa | 0 mm | - | 158 W/m² | - |
| 1777739918 | 12.78° C | 50% | 1015.6 hPa | 0 mm | - | 236 W/m² | - |
| 1777739312 | 12.78° C | 54% | 1015.8 hPa | 0 mm | - | 209 W/m² | - |
| 1777738706 | 12.78° C | 53% | 1015.7 hPa | 0 mm | - | 165 W/m² | - |
| 1777738099 | 12.22° C | 53% | 1015.6 hPa | 0 mm | - | 170 W/m² | - |
| 1777737189 | 12.78° C | 54% | 1015.7 hPa | 0 mm | - | 189 W/m² | - |
| 1777736270 | 12.78° C | 54% | 1016.2 hPa | 0 mm | - | 243 W/m² | - |
* Rain latest hour (hover to see other rain measurements)
** Current wind speed in m/s (hover to see current wind gust speed)